Regional Weather Roundup
Issued by NWS

Home | Current Version | Previous Version | Graphics & Text | Print | Product List | Glossary On
Versions: 1 2 3 4 5 6 7 8 9 10 11 12 13 14 15 16 17 18 19 20 21 22 23 24 25 26 27 28 29 30 31 32 33 34 35 36 37 38 39 40 41 42 43 44 45 46 47 48 49 50
000
ASUS45 KBOU 221307
RWRCO

WEATHER ROUNDUP FOR COLORADO
NATIONAL WEATHER SERVICE DENVER/BOULDER CO
600 AM MST SUN JAN 22 2017

NOTE: "FAIR" INDICATES FEW OR NO CLOUDS BELOW 12000 FEET WITH NO
SIGNIFICANT WEATHER AND/OR OBSTRUCTIONS TO VISIBILITY.

COZ001>005-013-030-031-221400-
...NORTHWEST COLORADO...

CITY           SKY/WX    TMP DP  RH WIND       PRES   REMARKS
CRAIG          FAIR      13   9  84 SW5       29.99R WCI   5
HAYDEN         FAIR      21  16  79 NE6       29.98R WCI  14
MEEKER         FAIR      11   9  92 NE5       29.99R WCI   3
MOUNT WERNER   NOT AVBL
STEAMBOAT SPGS CLOUDY    22  19  91 S3        29.97R
WALDEN           N/A     16   9  73 SW7       29.91R WCI   6
$$

COZ006>008-011-221400-
...WEST CENTRAL VALLEYS...

CITY           SKY/WX    TMP DP  RH WIND       PRES   REMARKS
GRAND JUNCTION FAIR      24  23  96 E3        30.04R
MONTROSE       FAIR      22  17  81 SE10      30.06R WCI  11
EAGLE          MOCLDY    20  18  92 E7        30.01R WCI  11
RIFLE          CLOUDY    29  25  85 CALM      30.01R
DELTA          FAIR      27  22  80 CALM      30.05R
NUCLA          FAIR      19  14  79 E7        30.08R WCI  10
$$

COZ017>023-064>068-221400-
...SOUTHWEST COLORADO...

CITY           SKY/WX    TMP DP  RH WIND       PRES   REMARKS
DURANGO        FAIR       1  -2  87 NE5       30.00R WCI  -9
CORTEZ         FAIR       7   4  87 NE8       30.05R WCI  -6
PAGOSA SPRINGS CLOUDY    20  19  95 CALM      29.99R
TELLURIDE      FAIR      13   9  84 CALM      30.00S
WOLF CREEK PAS   N/A      5   3  92 W3        29.94R
$$

COZ009-010-012-014-032>034-037-058>063-221400-
...CENTRAL COLORADO...

CITY           SKY/WX    TMP DP  RH WIND       PRES   REMARKS
ASPEN          CLOUDY    22  19  89 CALM      29.95R
BUENA VISTA    FAIR      12   5  73 CALM      29.91R
COPPER MTN     NOT AVBL
BERTHOUD PASS  NOT AVBL
COTTONWOOD PAS MOCLDY    21   7  53 NW8       29.88R WCI  12
GUNNISON       FAIR      10   7  87 N7        29.99R WCI  -1
KREMMLING      CLOUDY    27  18  69 CALM      29.96R
LEADVILLE      LGT SNOW  12   8  84 N8        29.87R FOG     WCI   0
MONARCH PASS   CLOUDY     9   3  78 W8        29.94R WCI  -4
SALIDA         FAIR      25  12  57 W13       29.98R WCI  14
SUNLIGHT       CLOUDY   N/A N/A N/A MISG      29.95R
WILKERSON PASS FAIR      10   1  67 NW8G20    29.84R WCI  -1
$$

COZ069>075-221400-
...SAN LUIS VALLEY/SANGRE DE CRISTO MOUNTAINS...

CITY           SKY/WX    TMP DP  RH WIND       PRES   REMARKS
ALAMOSA        FAIR       0  -3  87 CALM      29.94R
LA VETA PASS   FAIR      14  10  85 NE21G29   29.85R WCI  -4
SAGUACHE       FAIR      19  12  73 N10       29.93R WCI   8
$$

COZ035-036-038>040-221400-
...NORTHERN COLORADO FRONT RANGE...

CITY           SKY/WX    TMP DP  RH WIND       PRES   REMARKS
DENVER INTL AP FAIR      29  16  58 W10       29.84R WCI  20
DMNS CITY PARK   N/A     34   9  35 MISG      29.86R
AURORA         PTCLDY    29  13  52 W7        29.85R WCI  22
FRONT RANGE AP NOT AVBL
ERIE MUNI ARPT FAIR      24  18  78 CALM      29.84R
BOULDER MUN AP FAIR      32  16  51 CALM      29.83R
CENTENNIAL     FAIR      26  12  55 W5        29.84R WCI  20
BROOMFIELD     PTCLDY    32  10  40 CALM      29.84R
FORT COLLINS   FAIR      30  14  51 N7        29.85R WCI  23
LONGMONT       FAIR      29  17  59 S5        29.85R WCI  24
$$

COZ041-046-047-076>085-087-088-221400-
...PIKES PEAK/PALMER DIVIDE AND SOUTHERN FOOTHILLS...

CITY           SKY/WX    TMP DP  RH WIND       PRES   REMARKS
COLO. SPRINGS  FAIR      28  13  53 N9        29.84R WCI  19
A. F. ACADEMY  FAIR      27   7  43 N13       29.83R WCI  16
SCHRIEVER AFB  NOT AVBL
ELLICOTT       FAIR     N/A N/A N/A N6        29.83R
FALCON         FAIR      27   8  44 NW15      29.84R WCI  15
FORT CARSON    NOT AVBL
LIMON          FAIR      23  21  92 CALM      29.83R
MONUMENT HILL  FAIR      19  12  73 W9        29.85R WCI   9
TRINIDAD       FAIR      23  16  74 W10       29.85R WCI  12
$$

COZ042>045-048>051-090-091-221400-
...NORTHEAST COLORADO...

CITY           SKY/WX    TMP DP  RH WIND       PRES   REMARKS
GREELEY ARPT   FAIR      33  18  53 NW17      29.85R WCI  22
AKRON          FAIR      25  21  85 NW8       29.82R WCI  16
BURLINGTON     FAIR      31  26  82 NW13      29.80R WCI  21
WRAY           NOT AVBL
STERLING       FAIR      28  23  80 CALM      29.82R
HOLYOKE        FAIR      34  27  75 NW12G18   29.81R WCI  25
FORT MORGAN    FAIR      26  22  83 W8        29.83R WCI  18
$$

COZ086-089-092>099-221400-
...SOUTHEAST COLORADO...

CITY           SKY/WX    TMP DP  RH WIND       PRES   REMARKS
PUEBLO         FAIR      29  21  72 W9        29.85R WCI  20
LA JUNTA       FAIR      27  23  85 W15       29.84R WCI  15
LAMAR          FAIR      27  24  89 SW10      29.82R WCI  17
SPRINGFIELD      N/A     27  25  92 NW10      29.80R WCI  17
$$



USA.gov is the U.S. government's official web portal to all federal, state and local government web resources and services.